TimeCDT,TemperatureF,Dew PointF,Humidity,Sea Level PressureIn,VisibilityMPH,Wind Direction,Wind SpeedMPH,Gust SpeedMPH,PrecipitationIn,Events,Conditions,WindDirDegrees,DateUTC
12:52 AM,66.0,48.9,54,30.06,10.0,SSE,15.0,-,N/A,,Clear,150,2011-10-07 05:52:00
1:52 AM,64.9,48.9,56,30.07,10.0,SSE,12.7,-,N/A,,Clear,150,2011-10-07 06:52:00
2:52 AM,64.0,48.9,58,30.07,10.0,SSE,15.0,-,N/A,,Clear,160,2011-10-07 07:52:00
3:52 AM,63.0,50.0,63,30.07,10.0,SSE,13.8,-,N/A,,Clear,150,2011-10-07 08:52:00
4:52 AM,62.6,50.0,63,30.11,10.0,SSE,15.0,-,N/A,,Clear,160,2011-10-07 09:52:00
5:52 AM,62.1,51.1,67,30.11,10.0,SSE,16.1,-,N/A,,Clear,150,2011-10-07 10:52:00
6:52 AM,61.0,51.1,70,30.14,10.0,SSE,12.7,-,N/A,,Clear,160,2011-10-07 11:52:00
7:52 AM,62.1,52.0,70,30.15,10.0,SSE,15.0,-,N/A,,Clear,150,2011-10-07 12:52:00
8:52 AM,64.9,53.1,65,30.17,10.0,SSE,19.6,26.5,N/A,,Clear,150,2011-10-07 13:52:00
9:52 AM,69.1,55.0,61,30.18,10.0,SSE,19.6,-,N/A,,Clear,160,2011-10-07 14:52:00
10:52 AM,73.0,57.9,59,30.17,10.0,South,20.7,28.8,N/A,,Clear,170,2011-10-07 15:52:00
11:52 AM,75.2,57.2,53,30.20,10.0,SSE,19.6,28.8,N/A,,Clear,160,2011-10-07 16:52:00
12:52 PM,77.0,57.9,52,30.15,10.0,South,17.3,23.0,N/A,,Clear,180,2011-10-07 17:52:00
1:52 PM,78.1,55.9,46,30.13,10.0,SSE,17.3,26.5,N/A,,Clear,160,2011-10-07 18:52:00
2:52 PM,79.0,54.0,42,30.12,10.0,South,21.9,26.5,N/A,,Clear,170,2011-10-07 19:52:00
3:52 PM,79.0,53.1,40,30.10,10.0,SSE,18.4,26.5,N/A,,Clear,150,2011-10-07 20:52:00
4:52 PM,79.0,50.0,36,30.09,10.0,SE,18.4,27.6,N/A,,Clear,140,2011-10-07 21:52:00
5:52 PM,77.0,48.9,37,30.09,10.0,SSE,19.6,25.3,N/A,,Clear,160,2011-10-07 22:52:00
6:52 PM,75.0,48.9,40,30.10,10.0,SE,13.8,-,N/A,,Clear,140,2011-10-07 23:52:00
7:52 PM,72.0,50.0,46,30.11,10.0,SE,12.7,-,N/A,,Clear,140,2011-10-08 00:52:00
8:52 PM,70.0,50.0,49,30.12,10.0,SE,13.8,-,N/A,,Clear,140,2011-10-08 01:52:00
9:52 PM,69.1,50.0,51,30.12,10.0,SSE,15.0,-,N/A,,Clear,150,2011-10-08 02:52:00
10:52 PM,68.0,50.0,52,30.12,10.0,SSE,13.8,-,N/A,,Clear,160,2011-10-08 03:52:00
11:52 PM,68.0,51.1,55,30.11,10.0,SSE,16.1,-,N/A,,Clear,150,2011-10-08 04:52:00